Location: Riverside Cemetery
(38.3047°N, 99.7773°W)
Time: 01:15:26
(UTC+00:00)

Cosmos 1300 Rocket - Pass Details

Date: 19 September 2020
Orbit: 602 x 626 km, 82.5° (Epoch: 23 October)

Event Time Altitude Azimuth Distance (km) Brightness Sun altitude
Rises 02:19:06 0° 193° (SSW) 2,868 6.9 -19.6°
Reaches altitude 10° 02:21:19 10° 196° (SSW) 1,971 6.1 -20.1°
Maximum altitude 02:25:39 65° 279° (W) 682 3.9 -20.9°
Drops below altitude 10° 02:30:03 10° 1° (N) 2,000 6.4 -21.7°
Sets 02:32:19 0° 5° (N) 2,914 7.2 -22.1°
